Location: Unspecified
(0.0000°N, 0.0000°E)
Time: 05:02:53
(UTC+00:00)

Vanguard 1 - All Passes

Search period start: 10 December 2023 00:00
Search period end: 20 December 2023 00:00
Orbit: 652 x 3828 km, 34.3° (Epoch: 08 December)

Date Brightness Start Highest point End Pass type
(mag) Time Alt. Az. Time Alt. Az. Time Alt. Az.
10 Dec - 01:36:06 10° WNW 01:57:30 64° SW 02:10:03 10° SE visible
10 Dec - 04:12:19 10° WSW 04:20:35 17° SW 04:26:41 10° S visible
10 Dec - 11:29:32 10° SSW 11:33:35 27° SE 11:39:02 10° E daylight
10 Dec - 13:48:15 10° W 13:54:04 44° NNW 14:04:06 10° NE daylight
10 Dec - 16:12:31 10° NW 16:19:11 18° NNW 16:28:26 10° NNE daylight
10 Dec - 18:40:20 10° NNW 18:50:15 16° N 19:02:17 10° NE visible
10 Dec - 21:04:29 10° NNW 21:23:20 32° NNE 21:41:41 10° E visible
10 Dec - 23:29:06 10° NW 23:52:50 70° NE 00:09:26 10° ESE visible
11 Dec - 01:58:15 10° WNW 02:18:11 50° SW 02:30:09 10° SSE visible
11 Dec - 04:39:09 10° SW 04:41:41 11° SW 04:43:58 10° SSW visible
11 Dec - 11:49:18 10° SW 11:53:53 48° SE 12:00:40 10° ENE daylight
11 Dec - 14:09:25 10° W 14:15:11 31° NNW 14:24:30 10° NNE daylight
11 Dec - 16:35:25 10° NW 16:41:28 15° N 16:49:13 10° NNE daylight
11 Dec - 19:01:51 10° NNW 19:13:22 18° NNE 19:27:07 10° NE visible
11 Dec - 21:25:05 10° NNW 21:45:29 39° NNE 22:04:30 10° E visible
11 Dec - 23:50:07 10° NW 00:14:03 85° NE 00:30:18 10° SE visible
12 Dec - 02:20:58 10° WNW 02:38:53 38° SW 02:50:04 10° SSE visible
12 Dec - 12:09:29 10° SW 12:14:16 84° SE 12:21:46 10° NE daylight
12 Dec - 14:31:04 10° WNW 14:36:32 22° NNW 14:44:41 10° NNE daylight
12 Dec - 16:58:30 10° NNW 17:04:00 13° N 17:10:41 10° NNE daylight
12 Dec - 19:22:50 10° NNW 19:36:17 22° NNE 19:52:04 10° ENE visible
12 Dec - 21:45:39 10° NW 22:07:21 48° NNE 22:26:44 10° ESE visible
13 Dec - 00:11:22 10° NW 00:35:07 80° SW 00:50:54 10° SE visible
13 Dec - 02:44:25 10° W 02:59:42 28° SW 03:09:47 10° SSE visible
13 Dec - 10:12:41 10° S 10:14:55 13° SE 10:17:17 10° ESE daylight
13 Dec - 12:30:00 10° WSW 12:34:51 57° NNW 12:42:29 10° NE daylight
13 Dec - 14:53:19 10° NW 14:58:08 16° NNW 15:04:38 10° NNE daylight
13 Dec - 17:21:06 10° NNW 17:26:46 13° N 17:33:32 10° NNE daylight
13 Dec - 19:43:28 10° NNW 19:58:54 26° NNE 20:16:35 10° ENE visible
13 Dec - 22:06:15 10° NW 22:28:57 59° NE 22:48:28 10° ESE visible
14 Dec - 00:32:58 10° WNW 00:56:02 65° SW 01:11:17 10° SE visible
14 Dec - 03:08:46 10° W 03:20:45 21° SW 03:29:14 10° S visible
14 Dec - 10:31:42 10° SSW 10:35:23 25° SE 10:39:40 10° E daylight
14 Dec - 12:50:55 10° W 12:55:39 35° NNW 13:02:52 10° NE daylight
14 Dec - 15:16:26 10° NNW 15:19:59 12° N 15:24:15 10° NNE daylight
14 Dec - 17:42:41 10° NNW 17:49:38 14° NNE 17:58:01 10° NE daylight
14 Dec - 20:03:54 10° NNW 20:21:08 32° NNE 20:40:25 10° E visible
14 Dec - 22:26:57 10° NW 22:50:21 72° NE 23:09:46 10° ESE visible
15 Dec - 00:55:01 10° WNW 01:16:55 52° SW 01:31:29 10° SE visible
15 Dec - 03:34:16 10° WSW 03:42:05 15° SW 03:48:12 10° S visible
15 Dec - 10:51:30 10° SW 10:55:46 48° SE 11:01:05 10° ENE daylight
15 Dec - 13:12:18 10° WNW 13:16:41 23° NNW 13:22:55 10° NNE daylight
15 Dec - 18:03:27 10° NNW 18:12:25 16° NNE 18:23:30 10° NE visible
15 Dec - 20:24:17 10° NNW 20:43:04 40° NNE 21:03:31 10° E visible
15 Dec - 22:47:50 10° NW 23:11:36 86° NE 23:30:44 10° SE visible
16 Dec - 01:17:38 10° WNW 01:37:52 41° SW 01:51:33 10° SSE visible
16 Dec - 11:11:46 10° SW 11:16:11 88° NW 11:21:59 10° NE daylight
16 Dec - 13:34:23 10° NW 13:37:57 15° NNW 13:42:31 10° NNE daylight
16 Dec - 18:23:50 10° NNW 18:35:00 20° NNE 18:49:01 10° ENE visible
16 Dec - 20:44:39 10° NW 21:04:44 49° NE 21:25:57 10° ESE visible
16 Dec - 23:08:58 10° NW 23:32:44 80° SW 23:51:26 10° SE visible
17 Dec - 01:40:56 10° W 01:58:57 32° SW 02:11:27 10° SSE visible
17 Dec - 09:14:03 10° S 09:16:39 14° SSE 09:19:09 10° ESE daylight
17 Dec - 11:32:25 10° WSW 11:36:43 47° NNW 11:42:27 10° NE daylight
17 Dec - 13:58:17 10° NNW 13:59:26 10° NNW 14:00:39 10° N daylight
17 Dec - 18:44:01 10° NNW 18:57:16 24° NNE 19:14:00 10° ENE visible
17 Dec - 21:05:05 10° NW 21:26:10 60° NE 21:47:51 10° ESE visible
17 Dec - 23:30:25 10° WNW 23:53:50 66° SW 00:11:55 10° SE visible
18 Dec - 02:05:05 10° W 02:20:17 24° SW 02:31:12 10° SSE visible
18 Dec - 09:33:20 10° SSW 09:37:17 27° SE 09:41:08 10° E daylight
18 Dec - 11:53:33 10° W 11:57:28 26° NNW 12:02:32 10° NNE daylight
18 Dec - 16:47:52 10° N 16:49:31 10° NNE 16:51:15 10° NNE daylight
18 Dec - 19:04:09 10° NNW 19:19:12 31° NNE 19:38:11 10° E visible
18 Dec - 21:25:39 10° NW 21:47:28 72° NE 22:09:18 10° ESE visible
18 Dec - 23:52:18 10° WNW 00:14:56 54° SW 00:32:14 10° SE visible
19 Dec - 02:30:11 10° WSW 02:41:55 18° SSW 02:50:48 10° S visible
19 Dec - 09:53:18 10° SW 09:57:47 52° SE 10:02:19 10° ENE daylight
19 Dec - 12:15:21 10° WNW 12:18:23 16° NNW 12:22:05 10° NNE daylight
19 Dec - 17:06:12 10° N 17:11:59 13° NNE 17:18:55 10° NE daylight
19 Dec - 19:24:17 10° NNW 19:40:49 39° NE 20:01:35 10° E visible
19 Dec - 21:46:24 10° NW 22:08:41 86° NE 22:30:24 10° SE visible
